Time,TemperatureF,DewpointF,PressureIn,WindDirection,WindDirectionDegrees,WindSpeedMPH,WindSpeedGustMPH,Humidity,HourlyPrecipIn,Conditions,Clouds,dailyrainin,SoftwareType,DateUTC
2013-08-14 00:01:00,74.6,71.1,29.90,NW,325,5.0,9.0,89,0.00,,,0.00,Wunderground v.1.15,2013-08-14 04:01:00,
2013-08-14 00:02:00,74.5,70.7,29.89,NW,315,8.0,9.0,88,0.00,,,0.00,Wunderground v.1.15,2013-08-14 04:02:00,
2013-08-14 00:04:00,74.5,70.7,29.89,NW,326,11.0,11.0,88,0.00,,,0.00,Wunderground v.1.15,2013-08-14 04:04:00,
2013-08-14 00:06:00,74.5,70.4,29.89,NW,323,7.0,7.0,87,0.00,,,0.00,Wunderground v.1.15,2013-08-14 04:06:00,
2013-08-14 00:09:00,74.4,70.6,29.90,NNW,333,9.0,9.0,88,0.00,,,0.00,Wunderground v.1.15,2013-08-14 04:09:00,
2013-08-14 00:14:00,74.3,70.2,29.90,NNW,340,7.0,9.0,87,0.00,,,0.00,Wunderground v.1.15,2013-08-14 04:14:00,
2013-08-14 00:19:00,74.1,70.0,29.90,NNW,331,6.0,8.0,87,0.00,,,0.00,Wunderground v.1.15,2013-08-14 04:19:00,
2013-08-14 00:24:00,74.1,69.6,29.90,NNW,331,8.0,8.0,86,0.00,,,0.00,Wunderground v.1.15,2013-08-14 04:24:00,
2013-08-14 00:30:00,74.0,69.2,29.89,NNW,340,10.0,11.0,85,0.00,,,0.00,Wunderground v.1.15,2013-08-14 04:30:00,
2013-08-14 00:35:00,74.0,69.2,29.90,NNW,337,9.0,11.0,85,0.00,,,0.00,Wunderground v.1.15,2013-08-14 04:35:00,
2013-08-14 00:40:00,73.9,69.1,29.90,NNW,344,10.0,10.0,85,0.00,,,0.00,Wunderground v.1.15,2013-08-14 04:40:00,
2013-08-14 00:45:00,73.7,68.9,29.90,NNW,334,9.0,10.0,85,0.00,,,0.00,Wunderground v.1.15,2013-08-14 04:45:00,
2013-08-14 00:50:00,73.6,68.8,29.90,NNW,341,8.0,9.0,85,0.00,,,0.00,Wunderground v.1.15,2013-08-14 04:50:00,
2013-08-14 00:55:00,73.5,68.7,29.90,NNW,342,9.0,9.0,85,0.00,,,0.00,Wunderground v.1.15,2013-08-14 04:55:00,
2013-08-14 01:00:00,73.3,68.5,29.90,NNW,335,6.0,11.0,85,0.00,,,0.00,Wunderground v.1.15,2013-08-14 05:00:00,
2013-08-14 01:05:00,73.1,68.7,29.90,NNW,343,6.0,11.0,86,0.00,,,0.00,Wunderground v.1.15,2013-08-14 05:05:00,
2013-08-14 01:10:00,73.0,68.6,29.90,NNW,337,6.0,9.0,86,0.00,,,0.00,Wunderground v.1.15,2013-08-14 05:10:00,
2013-08-14 01:16:00,72.8,68.4,29.90,North,352,6.0,6.0,86,0.00,,,0.00,Wunderground v.1.15,2013-08-14 05:16:00,
2013-08-14 01:21:00,72.7,68.3,29.90,North,4,6.0,8.0,86,0.00,,,0.00,Wunderground v.1.15,2013-08-14 05:21:00,
2013-08-14 01:26:00,72.5,68.1,29.90,NNW,329,7.0,7.0,86,0.00,,,0.00,Wunderground v.1.15,2013-08-14 05:26:00,
2013-08-14 01:31:00,72.4,68.0,29.91,NNE,19,3.0,7.0,86,0.00,,,0.00,Wunderground v.1.15,2013-08-14 05:31:00,
2013-08-14 01:36:00,72.4,68.0,29.91,North,8,2.0,4.0,86,0.00,,,0.00,Wunderground v.1.15,2013-08-14 05:36:00,
2013-08-14 01:41:00,72.3,68.2,29.91,North,360,1.0,5.0,87,0.00,,,0.00,Wunderground v.1.15,2013-08-14 05:41:00,
2013-08-14 01:46:00,72.3,68.2,29.91,NE,53,2.0,2.0,87,0.00,,,0.00,Wunderground v.1.15,2013-08-14 05:46:00,
2013-08-14 01:52:00,72.3,68.2,29.91,East,99,1.0,2.0,87,0.00,,,0.00,Wunderground v.1.15,2013-08-14 05:52:00,
2013-08-14 01:57:00,72.3,68.2,29.91,NE,41,1.0,1.0,87,0.00,,,0.00,Wunderground v.1.15,2013-08-14 05:57:00,
2013-08-14 02:02:00,72.2,67.8,29.91,North,352,4.0,6.0,86,0.00,,,0.00,Wunderground v.1.15,2013-08-14 06:02:00,
2013-08-14 02:07:00,71.9,67.8,29.91,North,6,4.0,7.0,87,0.00,,,0.00,Wunderground v.1.15,2013-08-14 06:07:00,
2013-08-14 02:12:00,71.8,67.7,29.91,NNE,19,0.0,7.0,87,0.00,,,0.00,Wunderground v.1.15,2013-08-14 06:12:00,
2013-08-14 02:17:00,71.7,67.6,29.91,North,9,4.0,5.0,87,0.00,,,0.00,Wunderground v.1.15,2013-08-14 06:17:00,
2013-08-14 02:22:00,71.6,67.5,29.91,NNE,16,4.0,6.0,87,0.00,,,0.00,Wunderground v.1.15,2013-08-14 06:22:00,
2013-08-14 02:27:00,71.4,67.7,29.91,North,352,4.0,5.0,88,0.00,,,0.00,Wunderground v.1.15,2013-08-14 06:27:00,
2013-08-14 02:32:00,71.3,67.2,29.91,North,358,4.0,7.0,87,0.00,,,0.00,Wunderground v.1.15,2013-08-14 06:32:00,
2013-08-14 02:37:00,71.2,67.5,29.91,North,359,9.0,9.0,88,0.00,,,0.00,Wunderground v.1.15,2013-08-14 06:37:00,
2013-08-14 02:42:00,71.0,67.6,29.90,North,350,5.0,9.0,89,0.00,,,0.00,Wunderground v.1.15,2013-08-14 06:42:00,
2013-08-14 02:47:00,70.7,67.3,29.90,North,355,5.0,8.0,89,0.00,,,0.00,Wunderground v.1.15,2013-08-14 06:47:00,
2013-08-14 02:52:00,70.6,67.2,29.90,North,354,5.0,8.0,89,0.00,,,0.00,Wunderground v.1.15,2013-08-14 06:52:00,
2013-08-14 02:57:00,70.4,67.0,29.90,NNW,345,4.0,8.0,89,0.00,,,0.00,Wunderground v.1.15,2013-08-14 06:57:00,
2013-08-14 03:02:00,70.4,67.3,29.90,North,6,6.0,8.0,90,0.00,,,0.00,Wunderground v.1.15,2013-08-14 07:02:00,
2013-08-14 03:07:00,70.3,67.2,29.90,North,4,3.0,6.0,90,0.00,,,0.00,Wunderground v.1.15,2013-08-14 07:07:00,
2013-08-14 03:12:00,70.2,67.1,29.90,North,359,4.0,7.0,90,0.00,,,0.00,Wunderground v.1.15,2013-08-14 07:12:00,
2013-08-14 03:17:00,70.1,67.0,29.90,North,5,3.0,6.0,90,0.00,,,0.00,Wunderground v.1.15,2013-08-14 07:17:00,
2013-08-14 03:22:00,70.0,67.3,29.90,North,359,2.0,6.0,91,0.00,,,0.00,Wunderground v.1.15,2013-08-14 07:22:00,
2013-08-14 03:27:00,70.0,67.3,29.90,NNW,345,3.0,5.0,91,0.00,,,0.00,Wunderground v.1.15,2013-08-14 07:27:00,
2013-08-14 03:32:00,69.9,67.2,29.90,NNE,15,4.0,6.0,91,0.00,,,0.00,Wunderground v.1.15,2013-08-14 07:32:00,
2013-08-14 03:37:00,69.8,67.1,29.90,NNE,14,4.0,5.0,91,0.00,,,0.00,Wunderground v.1.15,2013-08-14 07:37:00,
2013-08-14 03:42:00,69.8,67.1,29.90,North,4,4.0,6.0,91,0.00,,,0.00,Wunderground v.1.15,2013-08-14 07:42:00,
2013-08-14 03:47:00,69.6,66.9,29.90,North,356,4.0,4.0,91,0.00,,,0.00,Wunderground v.1.15,2013-08-14 07:47:00,
2013-08-14 03:52:00,69.6,66.9,29.91,North,11,1.0,7.0,91,0.00,,,0.00,Wunderground v.1.15,2013-08-14 07:52:00,
2013-08-14 03:57:00,69.5,66.8,29.91,NNE,14,0.0,4.0,91,0.00,,,0.00,Wunderground v.1.15,2013-08-14 07:57:00,
2013-08-14 04:02:00,69.5,66.8,29.91,North,356,1.0,5.0,91,0.00,,,0.00,Wunderground v.1.15,2013-08-14 08:02:00,
2013-08-14 04:07:00,69.5,66.8,29.91,NNW,347,2.0,3.0,91,0.00,,,0.00,Wunderground v.1.15,2013-08-14 08:07:00,
2013-08-14 04:12:00,69.4,66.7,29.91,North,6,3.0,6.0,91,0.00,,,0.00,Wunderground v.1.15,2013-08-14 08:12:00,
2013-08-14 04:17:00,69.3,66.6,29.91,North,4,1.0,6.0,91,0.00,,,0.00,Wunderground v.1.15,2013-08-14 08:17:00,
2013-08-14 04:22:00,69.2,66.5,29.91,North,10,5.0,7.0,91,0.00,,,0.00,Wunderground v.1.15,2013-08-14 08:22:00,
2013-08-14 04:27:00,69.2,66.5,29.91,North,349,4.0,5.0,91,0.00,,,0.00,Wunderground v.1.15,2013-08-14 08:27:00,
2013-08-14 04:32:00,69.1,66.4,29.91,North,6,3.0,6.0,91,0.00,,,0.00,Wunderground v.1.15,2013-08-14 08:32:00,
2013-08-14 04:37:00,69.0,66.6,29.91,NNE,21,1.0,5.0,92,0.00,,,0.00,Wunderground v.1.15,2013-08-14 08:37:00,
2013-08-14 04:42:00,69.0,66.6,29.91,North,6,3.0,6.0,92,0.00,,,0.00,Wunderground v.1.15,2013-08-14 08:42:00,
2013-08-14 04:48:00,68.8,66.4,29.91,North,355,5.0,7.0,92,0.00,,,0.00,Wunderground v.1.15,2013-08-14 08:48:00,
2013-08-14 04:53:00,68.8,66.4,29.91,North,351,4.0,7.0,92,0.00,,,0.00,Wunderground v.1.15,2013-08-14 08:53:00,
2013-08-14 04:58:00,68.6,66.2,29.91,North,1,6.0,8.0,92,0.00,,,0.00,Wunderground v.1.15,2013-08-14 08:58:00,
2013-08-14 05:03:00,68.6,66.5,29.91,NNW,329,3.0,8.0,93,0.00,,,0.00,Wunderground v.1.15,2013-08-14 09:03:00,
2013-08-14 05:08:00,68.6,66.2,29.91,North,354,4.0,7.0,92,0.00,,,0.00,Wunderground v.1.15,2013-08-14 09:08:00,
2013-08-14 05:13:00,68.6,66.5,29.91,North,359,6.0,7.0,93,0.00,,,0.00,Wunderground v.1.15,2013-08-14 09:13:00,
2013-08-14 05:18:00,68.5,66.1,29.91,North,10,5.0,9.0,92,0.00,,,0.00,Wunderground v.1.15,2013-08-14 09:18:00,
2013-08-14 05:23:00,68.4,66.0,29.91,North,353,8.0,9.0,92,0.00,,,0.00,Wunderground v.1.15,2013-08-14 09:23:00,
2013-08-14 05:28:00,68.4,66.0,29.92,North,357,4.0,8.0,92,0.00,,,0.00,Wunderground v.1.15,2013-08-14 09:28:00,
2013-08-14 05:33:00,68.3,66.2,29.92,North,3,6.0,8.0,93,0.00,,,0.00,Wunderground v.1.15,2013-08-14 09:33:00,
2013-08-14 05:38:00,68.2,66.1,29.92,North,360,4.0,6.0,93,0.00,,,0.00,Wunderground v.1.15,2013-08-14 09:38:00,
2013-08-14 05:43:00,68.1,66.0,29.92,NNW,338,3.0,6.0,93,0.00,,,0.00,Wunderground v.1.15,2013-08-14 09:43:00,
2013-08-14 05:48:00,68.1,66.0,29.92,North,356,5.0,6.0,93,0.00,,,0.00,Wunderground v.1.15,2013-08-14 09:48:00,
2013-08-14 05:53:00,68.0,65.9,29.92,North,11,2.0,7.0,93,0.00,,,0.00,Wunderground v.1.15,2013-08-14 09:53:00,
2013-08-14 05:58:00,67.9,65.8,29.92,NNW,339,3.0,6.0,93,0.00,,,0.00,Wunderground v.1.15,2013-08-14 09:58:00,
2013-08-14 06:03:00,67.7,65.6,29.92,NNW,340,5.0,6.0,93,0.00,,,0.00,Wunderground v.1.15,2013-08-14 10:03:00,
2013-08-14 06:08:00,67.7,65.6,29.93,NNW,341,2.0,6.0,93,0.00,,,0.00,Wunderground v.1.15,2013-08-14 10:08:00,
2013-08-14 06:13:00,67.5,65.7,29.93,North,349,4.0,6.0,94,0.00,,,0.00,Wunderground v.1.15,2013-08-14 10:13:00,
2013-08-14 06:18:00,67.4,65.6,29.93,North,6,7.0,7.0,94,0.00,,,0.00,Wunderground v.1.15,2013-08-14 10:18:00,
2013-08-14 06:23:00,67.4,65.6,29.93,NNW,348,4.0,8.0,94,0.00,,,0.00,Wunderground v.1.15,2013-08-14 10:23:00,
2013-08-14 06:28:00,67.4,65.6,29.93,North,359,2.0,5.0,94,0.00,,,0.00,Wunderground v.1.15,2013-08-14 10:28:00,
2013-08-14 06:33:00,67.4,65.6,29.93,North,358,2.0,5.0,94,0.00,,,0.00,Wunderground v.1.15,2013-08-14 10:33:00,
2013-08-14 06:38:00,67.3,65.5,29.93,NNW,343,4.0,6.0,94,0.00,,,0.00,Wunderground v.1.15,2013-08-14 10:38:00,
2013-08-14 06:43:00,67.2,65.1,29.93,North,9,4.0,7.0,93,0.00,,,0.00,Wunderground v.1.15,2013-08-14 10:43:00,
2013-08-14 06:48:00,67.1,65.0,29.93,North,6,5.0,8.0,93,0.00,,,0.00,Wunderground v.1.15,2013-08-14 10:48:00,
2013-08-14 06:53:00,67.0,65.2,29.94,North,352,4.0,8.0,94,0.00,,,0.00,Wunderground v.1.15,2013-08-14 10:53:00,
2013-08-14 06:58:00,66.9,65.1,29.94,North,4,4.0,6.0,94,0.00,,,0.00,Wunderground v.1.15,2013-08-14 10:58:00,
2013-08-14 07:03:00,66.9,65.1,29.94,North,6,4.0,6.0,94,0.00,,,0.00,Wunderground v.1.15,2013-08-14 11:03:00,
2013-08-14 07:08:00,66.8,65.0,29.95,North,5,6.0,7.0,94,0.00,,,0.00,Wunderground v.1.15,2013-08-14 11:08:00,
2013-08-14 07:13:00,66.7,64.9,29.94,NNE,12,5.0,7.0,94,0.00,,,0.00,Wunderground v.1.15,2013-08-14 11:13:00,
2013-08-14 07:18:00,66.7,64.9,29.95,North,351,3.0,6.0,94,0.00,,,0.00,Wunderground v.1.15,2013-08-14 11:18:00,
2013-08-14 07:23:00,66.7,64.9,29.95,North,351,4.0,6.0,94,0.00,,,0.00,Wunderground v.1.15,2013-08-14 11:23:00,
2013-08-14 07:28:00,66.7,64.9,29.95,NNW,346,5.0,6.0,94,0.00,,,0.00,Wunderground v.1.15,2013-08-14 11:28:00,
2013-08-14 07:33:00,66.6,64.8,29.95,North,3,6.0,8.0,94,0.00,,,0.00,Wunderground v.1.15,2013-08-14 11:33:00,
2013-08-14 07:38:00,66.6,64.5,29.96,North,8,8.0,9.0,93,0.00,,,0.00,Wunderground v.1.15,2013-08-14 11:38:00,
2013-08-14 07:43:00,66.6,64.5,29.95,North,11,5.0,10.0,93,0.00,,,0.00,Wunderground v.1.15,2013-08-14 11:43:00,
2013-08-14 07:48:00,66.6,64.2,29.95,NNE,26,5.0,9.0,92,0.00,,,0.00,Wunderground v.1.15,2013-08-14 11:48:00,
2013-08-14 07:53:00,66.4,64.0,29.95,NNW,345,6.0,9.0,92,0.00,,,0.00,Wunderground v.1.15,2013-08-14 11:53:00,
2013-08-14 07:58:00,66.4,64.0,29.96,North,352,6.0,8.0,92,0.00,,,0.00,Wunderground v.1.15,2013-08-14 11:58:00,
2013-08-14 08:03:00,66.4,64.3,29.96,NNW,343,7.0,9.0,93,0.00,,,0.00,Wunderground v.1.15,2013-08-14 12:03:00,
2013-08-14 08:08:00,66.4,64.0,29.96,North,2,5.0,10.0,92,0.00,,,0.00,Wunderground v.1.15,2013-08-14 12:08:00,
2013-08-14 08:13:00,66.5,64.1,29.96,NNW,338,5.0,12.0,92,0.00,,,0.00,Wunderground v.1.15,2013-08-14 12:13:00,
2013-08-14 08:18:00,66.6,64.2,29.96,North,9,8.0,13.0,92,0.00,,,0.00,Wunderground v.1.15,2013-08-14 12:18:00,
2013-08-14 08:23:00,66.7,64.3,29.96,North,7,8.0,13.0,92,0.00,,,0.00,Wunderground v.1.15,2013-08-14 12:23:00,
2013-08-14 08:28:00,66.6,63.9,29.96,North,3,9.0,9.0,91,0.00,,,0.00,Wunderground v.1.15,2013-08-14 12:28:00,
2013-08-14 08:33:00,66.6,63.9,29.96,North,356,6.0,11.0,91,0.00,,,0.00,Wunderground v.1.15,2013-08-14 12:33:00,
2013-08-14 08:38:00,66.7,64.0,29.96,NNW,337,7.0,11.0,91,0.00,,,0.00,Wunderground v.1.15,2013-08-14 12:38:00,
2013-08-14 08:44:00,66.9,63.9,29.96,North,7,7.0,11.0,90,0.00,,,0.00,Wunderground v.1.15,2013-08-14 12:44:00,
2013-08-14 08:49:00,67.2,63.8,29.97,NNE,14,6.0,8.0,89,0.00,,,0.00,Wunderground v.1.15,2013-08-14 12:49:00,
2013-08-14 08:54:00,67.5,64.1,29.97,North,7,8.0,10.0,89,0.00,,,0.00,Wunderground v.1.15,2013-08-14 12:54:00,
2013-08-14 08:59:00,67.8,64.1,29.97,North,1,8.0,10.0,88,0.00,,,0.00,Wunderground v.1.15,2013-08-14 12:59:00,
2013-08-14 09:04:00,67.8,63.8,29.97,North,360,7.0,10.0,87,0.00,,,0.00,Wunderground v.1.15,2013-08-14 13:04:00,
2013-08-14 09:09:00,67.9,63.9,29.97,North,8,6.0,10.0,87,0.00,,,0.00,Wunderground v.1.15,2013-08-14 13:09:00,
2013-08-14 09:14:00,68.1,64.1,29.97,NNE,24,8.0,10.0,87,0.00,,,0.00,Wunderground v.1.15,2013-08-14 13:14:00,
2013-08-14 09:19:00,68.3,64.3,29.97,North,360,7.0,10.0,87,0.00,,,0.00,Wunderground v.1.15,2013-08-14 13:19:00,
2013-08-14 09:24:00,68.6,64.2,29.97,NNE,27,2.0,10.0,86,0.00,,,0.00,Wunderground v.1.15,2013-08-14 13:24:00,
2013-08-14 09:29:00,68.9,64.2,29.97,North,11,8.0,10.0,85,0.00,,,0.00,Wunderground v.1.15,2013-08-14 13:29:00,
2013-08-14 09:34:00,68.9,64.2,29.97,North,1,11.0,12.0,85,0.00,,,0.00,Wunderground v.1.15,2013-08-14 13:34:00,
2013-08-14 09:39:00,69.0,64.3,29.97,North,5,5.0,11.0,85,0.00,,,0.00,Wunderground v.1.15,2013-08-14 13:39:00,
2013-08-14 09:44:00,69.1,64.4,29.97,North,9,10.0,12.0,85,0.00,,,0.00,Wunderground v.1.15,2013-08-14 13:44:00,
2013-08-14 09:49:00,69.1,64.4,29.97,North,5,6.0,10.0,85,0.00,,,0.00,Wunderground v.1.15,2013-08-14 13:49:00,
2013-08-14 09:54:00,69.4,64.7,29.97,North,3,2.0,10.0,85,0.00,,,0.00,Wunderground v.1.15,2013-08-14 13:54:00,
2013-08-14 09:59:00,69.5,64.8,29.97,NNE,19,5.0,9.0,85,0.00,,,0.00,Wunderground v.1.15,2013-08-14 13:59:00,
2013-08-14 10:04:00,69.6,64.9,29.97,NNE,15,4.0,9.0,85,0.00,,,0.00,Wunderground v.1.15,2013-08-14 14:04:00,
2013-08-14 10:09:00,69.8,64.7,29.97,North,1,5.0,8.0,84,0.00,,,0.00,Wunderground v.1.15,2013-08-14 14:09:00,
2013-08-14 10:14:00,69.8,64.7,29.97,NNE,12,6.0,9.0,84,0.00,,,0.00,Wunderground v.1.15,2013-08-14 14:14:00,
2013-08-14 10:19:00,69.8,64.7,29.97,NNE,25,5.0,9.0,84,0.00,,,0.00,Wunderground v.1.15,2013-08-14 14:19:00,
2013-08-14 10:24:00,69.7,65.0,29.97,NNW,345,5.0,11.0,85,0.00,,,0.00,Wunderground v.1.15,2013-08-14 14:24:00,
2013-08-14 10:29:00,70.0,65.3,29.97,North,2,4.0,7.0,85,0.00,,,0.00,Wunderground v.1.15,2013-08-14 14:29:00,
2013-08-14 10:34:00,70.2,65.1,29.97,NNW,335,1.0,9.0,84,0.00,,,0.00,Wunderground v.1.15,2013-08-14 14:34:00,
2013-08-14 10:39:00,70.1,65.0,29.97,North,9,9.0,10.0,84,0.00,,,0.00,Wunderground v.1.15,2013-08-14 14:39:00,
2013-08-14 10:44:00,70.1,65.4,29.97,North,359,5.0,11.0,85,0.00,,,0.00,Wunderground v.1.15,2013-08-14 14:44:00,
2013-08-14 10:49:00,70.2,65.5,29.97,North,6,7.0,10.0,85,0.00,,,0.00,Wunderground v.1.15,2013-08-14 14:49:00,
2013-08-14 10:54:00,70.2,65.1,29.98,North,1,7.0,10.0,84,0.00,,,0.00,Wunderground v.1.15,2013-08-14 14:54:00,
2013-08-14 10:59:00,70.5,65.4,29.98,North,11,7.0,10.0,84,0.00,,,0.00,Wunderground v.1.15,2013-08-14 14:59:00,
2013-08-14 11:05:00,71.2,65.8,29.98,NNW,330,4.0,10.0,83,0.00,,,0.00,Wunderground v.1.15,2013-08-14 15:05:00,
2013-08-14 11:10:00,71.4,65.3,29.98,NNE,30,2.0,10.0,81,0.00,,,0.00,Wunderground v.1.15,2013-08-14 15:10:00,
2013-08-14 11:15:00,72.0,65.8,29.98,NNE,24,10.0,10.0,81,0.00,,,0.00,Wunderground v.1.15,2013-08-14 15:15:00,
2013-08-14 11:20:00,71.9,65.8,29.98,NNE,32,3.0,12.0,81,0.00,,,0.00,Wunderground v.1.15,2013-08-14 15:20:00,
2013-08-14 11:25:00,72.7,66.2,29.98,North,352,5.0,12.0,80,0.00,,,0.00,Wunderground v.1.15,2013-08-14 15:25:00,
2013-08-14 11:30:00,72.9,66.0,29.98,ENE,60,7.0,13.0,79,0.00,,,0.00,Wunderground v.1.15,2013-08-14 15:30:00,
2013-08-14 11:35:00,73.1,66.2,29.98,NNE,12,4.0,13.0,79,0.00,,,0.00,Wunderground v.1.15,2013-08-14 15:35:00,
2013-08-14 11:40:00,73.3,66.0,29.98,North,358,4.0,12.0,78,0.00,,,0.00,Wunderground v.1.15,2013-08-14 15:40:00,
2013-08-14 11:45:00,73.3,65.7,29.98,North,360,10.0,12.0,77,0.00,,,0.00,Wunderground v.1.15,2013-08-14 15:45:00,
2013-08-14 11:50:00,73.7,66.0,29.98,North,349,3.0,11.0,77,0.00,,,0.00,Wunderground v.1.15,2013-08-14 15:50:00,
2013-08-14 11:55:00,73.5,65.8,29.98,NNW,338,7.0,11.0,77,0.00,,,0.00,Wunderground v.1.15,2013-08-14 15:55:00,
2013-08-14 12:00:00,73.7,65.7,29.98,North,357,7.0,9.0,76,0.00,,,0.00,Wunderground v.1.15,2013-08-14 16:00:00,
2013-08-14 12:05:00,73.9,65.5,29.98,North,350,7.0,13.0,75,0.00,,,0.00,Wunderground v.1.15,2013-08-14 16:05:00,
2013-08-14 12:10:00,74.0,65.6,29.98,NNW,338,2.0,10.0,75,0.00,,,0.00,Wunderground v.1.15,2013-08-14 16:10:00,
2013-08-14 12:15:00,74.1,65.3,29.98,NNE,12,8.0,11.0,74,0.00,,,0.00,Wunderground v.1.15,2013-08-14 16:15:00,
2013-08-14 12:20:00,73.9,65.5,29.98,North,354,11.0,11.0,75,0.00,,,0.00,Wunderground v.1.15,2013-08-14 16:20:00,
2013-08-14 12:25:00,73.4,65.0,29.98,North,350,9.0,12.0,75,0.00,,,0.00,Wunderground v.1.15,2013-08-14 16:25:00,
2013-08-14 12:30:00,73.5,65.5,29.98,North,6,8.0,13.0,76,0.00,,,0.00,Wunderground v.1.15,2013-08-14 16:30:00,
2013-08-14 12:35:00,73.6,65.2,29.98,North,8,9.0,13.0,75,0.00,,,0.00,Wunderground v.1.15,2013-08-14 16:35:00,
2013-08-14 12:40:00,73.8,65.4,29.97,North,6,11.0,13.0,75,0.00,,,0.00,Wunderground v.1.15,2013-08-14 16:40:00,
2013-08-14 12:45:00,73.9,65.9,29.97,NNE,13,12.0,13.0,76,0.00,,,0.00,Wunderground v.1.15,2013-08-14 16:45:00,
2013-08-14 12:50:00,74.0,65.2,29.97,North,9,10.0,13.0,74,0.00,,,0.00,Wunderground v.1.15,2013-08-14 16:50:00,
2013-08-14 12:56:00,74.2,65.4,29.98,North,353,1.0,13.0,74,0.00,,,0.00,Wunderground v.1.15,2013-08-14 16:56:00,
2013-08-14 13:01:00,74.4,65.2,29.98,North,3,9.0,9.0,73,0.00,,,0.00,Wunderground v.1.15,2013-08-14 17:01:00,
2013-08-14 13:06:00,74.2,65.0,29.98,North,7,8.0,11.0,73,0.00,,,0.00,Wunderground v.1.15,2013-08-14 17:06:00,
2013-08-14 13:11:00,74.6,65.4,29.98,North,4,6.0,8.0,73,0.00,,,0.00,Wunderground v.1.15,2013-08-14 17:11:00,
2013-08-14 13:16:00,75.0,65.0,29.97,NNE,22,3.0,5.0,71,0.00,,,0.00,Wunderground v.1.15,2013-08-14 17:16:00,
2013-08-14 13:21:00,75.4,64.9,29.97,NNE,20,2.0,12.0,70,0.00,,,0.00,Wunderground v.1.15,2013-08-14 17:21:00,
2013-08-14 13:26:00,75.8,64.5,29.97,NNE,23,2.0,4.0,68,0.00,,,0.00,Wunderground v.1.15,2013-08-14 17:26:00,
2013-08-14 13:31:00,75.9,64.6,29.97,NE,53,2.0,9.0,68,0.00,,,0.00,Wunderground v.1.15,2013-08-14 17:31:00,
2013-08-14 13:36:00,76.1,64.3,29.97,WNW,290,0.0,3.0,67,0.00,,,0.00,Wunderground v.1.15,2013-08-14 17:36:00,
2013-08-14 13:41:00,75.9,63.7,29.97,North,5,9.0,13.0,66,0.00,,,0.00,Wunderground v.1.15,2013-08-14 17:41:00,
2013-08-14 13:46:00,75.7,64.0,29.97,NNE,13,6.0,8.0,67,0.00,,,0.00,Wunderground v.1.15,2013-08-14 17:46:00,
2013-08-14 13:51:00,76.0,63.8,29.97,NNE,23,6.0,8.0,66,0.00,,,0.00,Wunderground v.1.15,2013-08-14 17:51:00,
2013-08-14 13:56:00,76.1,63.0,29.96,North,8,11.0,13.0,64,0.00,,,0.00,Wunderground v.1.15,2013-08-14 17:56:00,
2013-08-14 14:01:00,75.8,63.2,29.96,East,96,0.0,15.0,65,0.00,,,0.00,Wunderground v.1.15,2013-08-14 18:01:00,
2013-08-14 14:07:00,76.5,62.5,29.96,NNE,33,2.0,6.0,62,0.00,,,0.00,Wunderground v.1.15,2013-08-14 18:07:00,
2013-08-14 14:12:00,76.7,63.6,29.96,North,354,0.0,7.0,64,0.00,,,0.00,Wunderground v.1.15,2013-08-14 18:12:00,
2013-08-14 14:18:00,76.9,63.3,29.96,NNE,15,5.0,5.0,63,0.00,,,0.00,Wunderground v.1.15,2013-08-14 18:18:00,
2013-08-14 14:23:00,76.2,62.7,29.97,North,8,6.0,10.0,63,0.00,,,0.00,Wunderground v.1.15,2013-08-14 18:23:00,
2013-08-14 14:29:00,76.0,61.6,29.96,North,353,8.0,11.0,61,0.00,,,0.00,Wunderground v.1.15,2013-08-14 18:29:00,
2013-08-14 14:34:00,75.8,61.4,29.96,North,5,9.0,12.0,61,0.00,,,0.00,Wunderground v.1.15,2013-08-14 18:34:00,
2013-08-14 14:39:00,75.7,61.3,29.96,North,356,10.0,13.0,61,0.00,,,0.00,Wunderground v.1.15,2013-08-14 18:39:00,
2013-08-14 14:44:00,75.8,62.3,29.96,North,360,7.0,13.0,63,0.00,,,0.00,Wunderground v.1.15,2013-08-14 18:44:00,
2013-08-14 14:49:00,76.0,62.5,29.96,North,11,8.0,12.0,63,0.00,,,0.00,Wunderground v.1.15,2013-08-14 18:49:00,
2013-08-14 14:54:00,76.1,62.6,29.96,North,354,5.0,12.0,63,0.00,,,0.00,Wunderground v.1.15,2013-08-14 18:54:00,
2013-08-14 14:59:00,76.6,63.1,29.95,North,6,2.0,6.0,63,0.00,,,0.00,Wunderground v.1.15,2013-08-14 18:59:00,
2013-08-14 15:04:00,76.5,62.0,29.95,NNE,16,11.0,11.0,61,0.00,,,0.00,Wunderground v.1.15,2013-08-14 19:04:00,
2013-08-14 15:12:00,76.8,62.3,29.95,NNW,340,4.0,8.0,61,0.00,,,0.00,Wunderground v.1.15,2013-08-14 19:12:00,
2013-08-14 15:17:00,76.7,62.7,29.95,North,6,5.0,8.0,62,0.00,,,0.00,Wunderground v.1.15,2013-08-14 19:17:00,
2013-08-14 15:22:00,76.4,62.0,29.95,North,8,4.0,10.0,61,0.00,,,0.00,Wunderground v.1.15,2013-08-14 19:22:00,
2013-08-14 15:28:00,76.3,61.9,29.95,NNE,17,7.0,11.0,61,0.00,,,0.00,Wunderground v.1.15,2013-08-14 19:28:00,
2013-08-14 15:33:00,76.2,62.7,29.95,NE,51,4.0,11.0,63,0.00,,,0.00,Wunderground v.1.15,2013-08-14 19:33:00,
2013-08-14 15:38:00,76.4,62.4,29.95,North,1,7.0,8.0,62,0.00,,,0.00,Wunderground v.1.15,2013-08-14 19:38:00,
2013-08-14 15:43:00,76.9,61.0,29.95,NNW,339,2.0,8.0,58,0.00,,,0.00,Wunderground v.1.15,2013-08-14 19:43:00,
2013-08-14 15:48:00,77.4,61.5,29.95,North,358,6.0,6.0,58,0.00,,,0.00,Wunderground v.1.15,2013-08-14 19:48:00,
2013-08-14 15:53:00,77.6,61.7,29.95,NE,34,2.0,8.0,58,0.00,,,0.00,Wunderground v.1.15,2013-08-14 19:53:00,
2013-08-14 15:58:00,78.1,61.6,29.95,North,9,1.0,5.0,57,0.00,,,0.00,Wunderground v.1.15,2013-08-14 19:58:00,
2013-08-14 16:04:00,78.5,61.5,29.94,North,6,8.0,8.0,56,0.00,,,0.00,Wunderground v.1.15,2013-08-14 20:04:00,
2013-08-14 16:09:00,78.3,61.3,29.94,NNW,335,1.0,10.0,56,0.00,,,0.00,Wunderground v.1.15,2013-08-14 20:09:00,
2013-08-14 16:14:00,78.4,61.4,29.94,North,359,7.0,12.0,56,0.00,,,0.00,Wunderground v.1.15,2013-08-14 20:14:00,
2013-08-14 16:21:00,77.6,60.7,29.94,North,349,8.0,14.0,56,0.00,,,0.00,Wunderground v.1.15,2013-08-14 20:21:00,
2013-08-14 16:27:00,77.3,61.4,29.94,NNE,30,10.0,10.0,58,0.00,,,0.00,Wunderground v.1.15,2013-08-14 20:27:00,
2013-08-14 16:32:00,77.4,61.0,29.94,NNE,17,9.0,13.0,57,0.00,,,0.00,Wunderground v.1.15,2013-08-14 20:32:00,
2013-08-14 16:37:00,77.5,61.6,29.94,NNE,24,6.0,10.0,58,0.00,,,0.00,Wunderground v.1.15,2013-08-14 20:37:00,
2013-08-14 16:44:00,77.6,60.7,29.94,NNE,14,4.0,11.0,56,0.00,,,0.00,Wunderground v.1.15,2013-08-14 20:44:00,
2013-08-14 16:49:00,77.8,61.8,29.94,North,354,1.0,9.0,58,0.00,,,0.00,Wunderground v.1.15,2013-08-14 20:49:00,
2013-08-14 16:54:00,78.5,61.5,29.94,NNE,18,1.0,9.0,56,0.00,,,0.00,Wunderground v.1.15,2013-08-14 20:54:00,
2013-08-14 17:00:00,78.7,61.7,29.94,East,80,1.0,10.0,56,0.00,,,0.00,Wunderground v.1.15,2013-08-14 21:00:00,
2013-08-14 17:05:00,78.2,61.2,29.94,North,11,4.0,11.0,56,0.00,,,0.00,Wunderground v.1.15,2013-08-14 21:05:00,
2013-08-14 17:10:00,77.8,61.3,29.94,NNE,13,3.0,13.0,57,0.00,,,0.00,Wunderground v.1.15,2013-08-14 21:10:00,
2013-08-14 17:15:00,77.9,60.9,29.94,North,8,8.0,15.0,56,0.00,,,0.00,Wunderground v.1.15,2013-08-14 21:15:00,
2013-08-14 17:20:00,78.6,61.1,29.94,NE,46,3.0,8.0,55,0.00,,,0.00,Wunderground v.1.15,2013-08-14 21:20:00,
2013-08-14 17:25:00,79.2,61.1,29.94,South,191,0.0,8.0,54,0.00,,,0.00,Wunderground v.1.15,2013-08-14 21:25:00,
2013-08-14 17:30:00,78.7,60.7,29.94,NNW,345,8.0,12.0,54,0.00,,,0.00,Wunderground v.1.15,2013-08-14 21:30:00,
2013-08-14 17:35:00,78.1,60.1,29.94,North,10,11.0,15.0,54,0.00,,,0.00,Wunderground v.1.15,2013-08-14 21:35:00,
2013-08-14 17:40:00,77.5,60.6,29.94,NNE,13,11.0,17.0,56,0.00,,,0.00,Wunderground v.1.15,2013-08-14 21:40:00,
2013-08-14 17:45:00,77.3,59.9,29.94,North,350,11.0,17.0,55,0.00,,,0.00,Wunderground v.1.15,2013-08-14 21:45:00,
2013-08-14 17:50:00,77.3,60.4,29.94,ESE,117,2.0,14.0,56,0.00,,,0.00,Wunderground v.1.15,2013-08-14 21:50:00,
2013-08-14 17:55:00,77.5,60.6,29.94,NNE,13,11.0,14.0,56,0.00,,,0.00,Wunderground v.1.15,2013-08-14 21:55:00,
2013-08-14 18:01:00,77.6,59.6,29.94,NNE,20,2.0,15.0,54,0.00,,,0.00,Wunderground v.1.15,2013-08-14 22:01:00,
2013-08-14 18:06:00,78.3,60.8,29.94,NNE,13,6.0,9.0,55,0.00,,,0.00,Wunderground v.1.15,2013-08-14 22:06:00,
2013-08-14 18:11:00,78.5,61.0,29.94,NNE,16,2.0,9.0,55,0.00,,,0.00,Wunderground v.1.15,2013-08-14 22:11:00,
2013-08-14 18:16:00,77.9,61.4,29.94,North,359,8.0,10.0,57,0.00,,,0.00,Wunderground v.1.15,2013-08-14 22:16:00,
2013-08-14 18:21:00,77.5,61.6,29.94,North,8,6.0,10.0,58,0.00,,,0.00,Wunderground v.1.15,2013-08-14 22:21:00,
2013-08-14 18:26:00,77.2,61.3,29.94,ESE,117,3.0,9.0,58,0.00,,,0.00,Wunderground v.1.15,2013-08-14 22:26:00,
2013-08-14 18:31:00,77.6,60.7,29.94,North,357,2.0,10.0,56,0.00,,,0.00,Wunderground v.1.15,2013-08-14 22:31:00,
2013-08-14 18:36:00,78.2,60.7,29.94,NNE,17,8.0,9.0,55,0.00,,,0.00,Wunderground v.1.15,2013-08-14 22:36:00,
2013-08-14 18:41:00,77.6,60.7,29.94,NNE,21,4.0,12.0,56,0.00,,,0.00,Wunderground v.1.15,2013-08-14 22:41:00,
2013-08-14 18:46:00,77.5,60.6,29.94,NE,34,10.0,11.0,56,0.00,,,0.00,Wunderground v.1.15,2013-08-14 22:46:00,
2013-08-14 18:51:00,77.2,60.8,29.94,North,10,4.0,11.0,57,0.00,,,0.00,Wunderground v.1.15,2013-08-14 22:51:00,
2013-08-14 18:56:00,76.9,60.5,29.94,NNE,12,8.0,10.0,57,0.00,,,0.00,Wunderground v.1.15,2013-08-14 22:56:00,
2013-08-14 19:02:00,76.5,60.6,29.94,North,355,6.0,10.0,58,0.00,,,0.00,Wunderground v.1.15,2013-08-14 23:02:00,
2013-08-14 19:07:00,76.4,60.5,29.94,NNE,22,1.0,9.0,58,0.00,,,0.00,Wunderground v.1.15,2013-08-14 23:07:00,
2013-08-14 19:12:00,76.3,60.4,29.94,North,6,5.0,11.0,58,0.00,,,0.00,Wunderground v.1.15,2013-08-14 23:12:00,
2013-08-14 19:17:00,76.2,60.8,29.94,North,358,8.0,8.0,59,0.00,,,0.00,Wunderground v.1.15,2013-08-14 23:17:00,
2013-08-14 19:22:00,76.1,60.7,29.95,North,8,9.0,11.0,59,0.00,,,0.00,Wunderground v.1.15,2013-08-14 23:22:00,
2013-08-14 19:27:00,75.9,60.5,29.95,North,11,10.0,10.0,59,0.00,,,0.00,Wunderground v.1.15,2013-08-14 23:27:00,
2013-08-14 19:32:00,75.6,60.3,29.95,North,8,6.0,10.0,59,0.00,,,0.00,Wunderground v.1.15,2013-08-14 23:32:00,
2013-08-14 19:37:00,75.5,61.1,29.95,North,357,5.0,9.0,61,0.00,,,0.00,Wunderground v.1.15,2013-08-14 23:37:00,
2013-08-14 19:42:00,75.6,61.2,29.95,NNE,27,2.0,9.0,61,0.00,,,0.00,Wunderground v.1.15,2013-08-14 23:42:00,
2013-08-14 19:47:00,75.5,61.6,29.96,North,351,2.0,6.0,62,0.00,,,0.00,Wunderground v.1.15,2013-08-14 23:47:00,
2013-08-14 19:52:00,75.3,61.4,29.96,ENE,70,1.0,8.0,62,0.00,,,0.00,Wunderground v.1.15,2013-08-14 23:52:00,
2013-08-14 19:57:00,75.3,61.8,29.96,NNW,343,3.0,7.0,63,0.00,,,0.00,Wunderground v.1.15,2013-08-14 23:57:00,
2013-08-14 20:02:00,75.1,60.3,29.96,North,358,5.0,7.0,60,0.00,,,0.00,Wunderground v.1.15,2013-08-15 00:02:00,
2013-08-14 20:07:00,74.6,60.3,29.97,North,356,4.0,6.0,61,0.00,,,0.00,Wunderground v.1.15,2013-08-15 00:07:00,
2013-08-14 20:12:00,73.9,60.1,29.97,NNE,18,5.0,10.0,62,0.00,,,0.00,Wunderground v.1.15,2013-08-15 00:12:00,
2013-08-14 20:17:00,73.5,60.1,29.97,NNW,347,4.0,8.0,63,0.00,,,0.00,Wunderground v.1.15,2013-08-15 00:17:00,
2013-08-14 20:22:00,73.1,61.1,29.97,NNE,13,6.0,9.0,66,0.00,,,0.00,Wunderground v.1.15,2013-08-15 00:22:00,
2013-08-14 20:27:00,72.7,61.1,29.97,North,7,6.0,10.0,67,0.00,,,0.00,Wunderground v.1.15,2013-08-15 00:27:00,
2013-08-14 20:32:00,72.3,61.1,29.97,North,11,6.0,10.0,68,0.00,,,0.00,Wunderground v.1.15,2013-08-15 00:32:00,
2013-08-14 20:37:00,71.8,61.5,29.97,NNW,342,4.0,7.0,70,0.00,,,0.00,Wunderground v.1.15,2013-08-15 00:37:00,
2013-08-14 20:42:00,71.3,61.8,29.97,North,10,6.0,8.0,72,0.00,,,0.00,Wunderground v.1.15,2013-08-15 00:42:00,
2013-08-14 20:47:00,71.0,61.9,29.97,North,4,6.0,7.0,73,0.00,,,0.00,Wunderground v.1.15,2013-08-15 00:47:00,
2013-08-14 20:52:00,70.6,62.3,29.97,North,4,5.0,9.0,75,0.00,,,0.00,Wunderground v.1.15,2013-08-15 00:52:00,
2013-08-14 20:57:00,70.2,62.3,29.97,North,356,7.0,8.0,76,0.00,,,0.00,Wunderground v.1.15,2013-08-15 00:57:00,
2013-08-14 21:02:00,70.0,62.8,29.97,NNE,15,5.0,9.0,78,0.00,,,0.00,Wunderground v.1.15,2013-08-15 01:02:00,
2013-08-14 21:07:00,69.7,62.2,29.98,North,4,8.0,9.0,77,0.00,,,0.00,Wunderground v.1.15,2013-08-15 01:07:00,
2013-08-14 21:12:00,69.5,62.3,29.98,North,352,7.0,10.0,78,0.00,,,0.00,Wunderground v.1.15,2013-08-15 01:12:00,
2013-08-14 21:17:00,69.4,61.9,29.98,NNE,21,8.0,10.0,77,0.00,,,0.00,Wunderground v.1.15,2013-08-15 01:17:00,
2013-08-14 21:22:00,69.3,61.8,29.98,North,11,9.0,10.0,77,0.00,,,0.00,Wunderground v.1.15,2013-08-15 01:22:00,
2013-08-14 21:27:00,69.1,61.9,29.98,North,349,6.0,9.0,78,0.00,,,0.00,Wunderground v.1.15,2013-08-15 01:27:00,
2013-08-14 21:33:00,69.0,61.9,29.98,NNW,347,10.0,10.0,78,0.00,,,0.00,Wunderground v.1.15,2013-08-15 01:33:00,
2013-08-14 21:38:00,68.8,62.0,29.98,North,354,8.0,10.0,79,0.00,,,0.00,Wunderground v.1.15,2013-08-15 01:38:00,
2013-08-14 21:43:00,68.6,61.5,29.98,North,1,6.0,12.0,78,0.00,,,0.00,Wunderground v.1.15,2013-08-15 01:43:00,
2013-08-14 21:48:00,68.4,61.3,29.98,North,4,7.0,10.0,78,0.00,,,0.00,Wunderground v.1.15,2013-08-15 01:48:00,
2013-08-14 21:53:00,68.3,61.2,29.99,North,4,7.0,11.0,78,0.00,,,0.00,Wunderground v.1.15,2013-08-15 01:53:00,
2013-08-14 21:58:00,68.1,61.0,29.99,North,10,6.0,9.0,78,0.00,,,0.00,Wunderground v.1.15,2013-08-15 01:58:00,
2013-08-14 22:03:00,67.9,60.8,29.99,North,356,8.0,10.0,78,0.00,,,0.00,Wunderground v.1.15,2013-08-15 02:03:00,
2013-08-14 22:08:00,67.7,61.0,30.00,NNE,15,6.0,10.0,79,0.00,,,0.00,Wunderground v.1.15,2013-08-15 02:08:00,
2013-08-14 22:13:00,67.6,60.9,30.00,North,351,7.0,10.0,79,0.00,,,0.00,Wunderground v.1.15,2013-08-15 02:13:00,
2013-08-14 22:18:00,67.3,60.9,30.00,North,6,4.0,9.0,80,0.00,,,0.00,Wunderground v.1.15,2013-08-15 02:18:00,
2013-08-14 22:23:00,67.2,60.8,30.00,North,359,6.0,9.0,80,0.00,,,0.00,Wunderground v.1.15,2013-08-15 02:23:00,
2013-08-14 22:28:00,67.1,60.4,30.00,North,353,5.0,8.0,79,0.00,,,0.00,Wunderground v.1.15,2013-08-15 02:28:00,
2013-08-14 22:33:00,66.9,60.2,30.00,North,359,7.0,10.0,79,0.00,,,0.00,Wunderground v.1.15,2013-08-15 02:33:00,
2013-08-14 22:38:00,67.0,60.3,30.00,North,4,6.0,9.0,79,0.00,,,0.00,Wunderground v.1.15,2013-08-15 02:38:00,
2013-08-14 22:43:00,66.9,60.5,30.00,North,10,7.0,9.0,80,0.00,,,0.00,Wunderground v.1.15,2013-08-15 02:43:00,
2013-08-14 22:48:00,66.8,60.4,30.01,North,351,4.0,6.0,80,0.00,,,0.00,Wunderground v.1.15,2013-08-15 02:48:00,
2013-08-14 22:53:00,66.7,60.3,30.01,North,8,4.0,9.0,80,0.00,,,0.00,Wunderground v.1.15,2013-08-15 02:53:00,
2013-08-14 22:58:00,66.5,60.1,30.01,North,4,5.0,6.0,80,0.00,,,0.00,Wunderground v.1.15,2013-08-15 02:58:00,
2013-08-14 23:03:00,66.3,59.9,30.01,North,9,6.0,8.0,80,0.00,,,0.00,Wunderground v.1.15,2013-08-15 03:03:00,
2013-08-14 23:08:00,66.2,60.2,30.01,North,11,5.0,6.0,81,0.00,,,0.00,Wunderground v.1.15,2013-08-15 03:08:00,
2013-08-14 23:13:00,66.0,60.0,30.01,North,11,6.0,7.0,81,0.00,,,0.00,Wunderground v.1.15,2013-08-15 03:13:00,
2013-08-14 23:18:00,65.8,60.2,30.01,NNW,339,3.0,7.0,82,0.00,,,0.00,Wunderground v.1.15,2013-08-15 03:18:00,
2013-08-14 23:23:00,65.7,60.4,30.01,North,6,4.0,7.0,83,0.00,,,0.00,Wunderground v.1.15,2013-08-15 03:23:00,
2013-08-14 23:28:00,65.5,60.2,30.01,NNE,30,5.0,7.0,83,0.00,,,0.00,Wunderground v.1.15,2013-08-15 03:28:00,
2013-08-14 23:33:00,65.4,60.1,30.01,North,351,4.0,7.0,83,0.00,,,0.00,Wunderground v.1.15,2013-08-15 03:33:00,
2013-08-14 23:38:00,65.3,60.0,30.01,North,8,4.0,5.0,83,0.00,,,0.00,Wunderground v.1.15,2013-08-15 03:38:00,
2013-08-14 23:43:00,65.2,59.9,30.01,North,354,3.0,6.0,83,0.00,,,0.00,Wunderground v.1.15,2013-08-15 03:43:00,
2013-08-14 23:48:00,65.2,59.9,30.01,NNW,342,3.0,6.0,83,0.00,,,0.00,Wunderground v.1.15,2013-08-15 03:48:00,
2013-08-14 23:53:00,65.1,59.8,30.01,NNW,342,2.0,7.0,83,0.00,,,0.00,Wunderground v.1.15,2013-08-15 03:53:00,
2013-08-14 23:59:00,65.0,59.7,30.01,NE,41,2.0,4.0,83,0.00,,,0.00,Wunderground v.1.15,2013-08-15 03:59:00,